Simultaneous Nadir Overpasses (SNOs) Predictions

Prediction of SNOs between GOES-17 and METOP-B Satellite Orbit:

Table of predicted SNOs for the next 14.0 days since TLE Epoch: 7/17/2021
Index Date Time (GOES-17) GOES-17 Lat,Lon METOP-B Lat,Lon Distance(km) Time Diff (sec)
1 07/17/2021 06:48:50 -0.00,-137.20 -0.57,-139.80 295.10 80
2 07/18/2021 06:30:50 -0.01,-137.21 0.53,-134.80 274.38 80
3 07/19/2021 18:47:03 0.01,-137.21 0.50,-139.36 244.90 80
4 07/20/2021 18:29:04 0.01,-137.21 -0.65,-134.37 324.06 80
5 07/22/2021 06:45:24 -0.02,-137.19 -0.38,-138.96 200.93 80
6 07/23/2021 06:27:25 -0.02,-137.19 0.71,-133.96 367.58 80
7 07/24/2021 18:43:37 0.02,-137.18 0.32,-138.52 152.88 80
8 07/25/2021 18:25:38 0.02,-137.17 -0.77,-133.52 415.29 80
9 07/27/2021 06:44:39 0.01,-137.15 -0.19,-138.13 110.78 80
10 07/28/2021 06:21:20 0.02,-137.15 0.90,-133.13 457.12 80
11 07/29/2021 18:40:12 -0.02,-137.14 0.13,-137.69 63.79 80
